Location: Albuquerque Trailhead
(34.7934°N, 106.3736°W)
Time: 16:11:29
(UTC+00:00)

Cosmos 2322 - Pass Details

Date: 20 June 2021
Orbit: 840 x 855 km, 71.0° (Epoch: 26 July)

Event Time Altitude Azimuth Distance (km) Brightness Sun altitude
Exits shadow 04:06:54 14° 188° (S) 2,161 5.5 -17.8°
Maximum altitude 04:11:41 67° 108° (ESE) 910 3.6 -18.4°
Drops below altitude 10° 04:17:16 10° 27° (NNE) 2,461 6.4 -19.2°
Sets 04:19:44 0° 25° (NNE) 3,400 7.2 -19.5°
